TimeCDT,TemperatureF,Dew PointF,Humidity,Sea Level PressureIn,VisibilityMPH,Wind Direction,Wind SpeedMPH,Gust SpeedMPH,PrecipitationIn,Events,Conditions,WindDirDegrees,DateUTC
12:15 AM,79.7,67.6,66,29.84,7.0,East,10.4,-,N/A,,Clear,90,2013-05-10 05:15:00
12:35 AM,79.0,67.6,68,29.85,5.0,ESE,9.2,-,N/A,Thunderstorm,Haze,110,2013-05-10 05:35:00
1:15 AM,78.1,68.0,71,29.85,5.0,NE,6.9,-,N/A,,Haze,50,2013-05-10 06:15:00
1:35 AM,77.9,68.0,71,29.84,5.0,ENE,11.5,16.1,N/A,,Haze,70,2013-05-10 06:35:00
1:55 AM,77.4,68.0,73,29.81,5.0,ESE,12.7,-,N/A,,Haze,110,2013-05-10 06:55:00
2:15 AM,76.6,68.2,75,29.81,5.0,ESE,10.4,16.1,N/A,,Haze,110,2013-05-10 07:15:00
2:35 AM,76.1,68.5,77,29.81,5.0,ESE,12.7,18.4,N/A,,Haze,110,2013-05-10 07:35:00
2:55 AM,75.7,68.5,78,29.80,5.0,ESE,12.7,16.1,N/A,,Haze,120,2013-05-10 07:55:00
3:15 AM,75.4,68.5,79,29.79,5.0,SE,8.1,-,N/A,,Haze,130,2013-05-10 08:15:00
3:55 AM,75.2,68.5,80,29.80,5.0,SE,5.8,-,N/A,,Haze,130,2013-05-10 08:55:00
4:15 AM,74.5,68.5,82,29.80,4.0,SE,4.6,-,N/A,,Haze,130,2013-05-10 09:15:00
4:55 AM,73.8,68.9,85,29.81,4.0,Calm,Calm,-,N/A,,Haze,0,2013-05-10 09:55:00
5:15 AM,74.3,69.3,84,29.81,4.0,Calm,Calm,-,N/A,,Haze,0,2013-05-10 10:15:00
5:35 AM,74.3,68.9,83,29.80,4.0,SSE,3.5,-,N/A,,Haze,150,2013-05-10 10:35:00
5:55 AM,74.5,69.1,83,29.81,4.0,Calm,Calm,-,N/A,,Haze,0,2013-05-10 10:55:00
6:15 AM,74.7,68.9,82,29.81,4.0,NE,3.5,-,N/A,,Haze,50,2013-05-10 11:15:00
6:35 AM,74.5,68.9,83,29.82,4.0,NE,3.5,-,N/A,,Haze,50,2013-05-10 11:35:00
7:15 AM,75.2,68.9,81,29.82,3.0,East,5.8,-,N/A,,Haze,100,2013-05-10 12:15:00
7:35 AM,75.6,68.7,79,29.84,3.0,East,3.5,-,N/A,,Haze,100,2013-05-10 12:35:00
8:15 AM,76.5,68.5,76,29.85,4.0,East,6.9,-,N/A,,Haze,100,2013-05-10 13:15:00
8:35 AM,77.2,68.5,75,29.85,4.0,SE,4.6,-,N/A,,Haze,130,2013-05-10 13:35:00
8:55 AM,77.4,68.4,74,29.86,4.0,SE,3.5,-,N/A,,Haze,130,2013-05-10 13:55:00
9:15 AM,77.5,68.4,73,29.87,4.0,South,3.5,-,N/A,,Haze,180,2013-05-10 14:15:00
9:35 AM,77.9,68.4,72,29.87,4.0,Calm,Calm,-,N/A,,Haze,0,2013-05-10 14:35:00
9:55 AM,78.6,68.5,71,29.87,4.0,Calm,Calm,-,N/A,,Haze,0,2013-05-10 14:55:00
10:15 AM,78.8,68.5,71,29.87,4.0,Calm,Calm,-,N/A,,Haze,0,2013-05-10 15:15:00
10:35 AM,79.5,68.5,69,29.87,4.0,Calm,Calm,-,N/A,,Haze,0,2013-05-10 15:35:00
10:55 AM,80.2,68.4,67,29.87,4.0,Calm,Calm,-,N/A,,Haze,0,2013-05-10 15:55:00
11:15 AM,80.2,68.2,67,29.89,4.0,Calm,Calm,-,N/A,,Haze,0,2013-05-10 16:15:00
11:35 AM,80.1,68.2,67,29.89,4.0,NNW,4.6,-,N/A,,Haze,340,2013-05-10 16:35:00
12:15 PM,81.7,68.4,64,29.89,4.0,NNE,8.1,-,N/A,,Haze,20,2013-05-10 17:15:00
12:35 PM,83.8,68.4,59,29.87,4.0,North,8.1,-,N/A,,Haze,10,2013-05-10 17:35:00
12:55 PM,85.5,68.0,56,29.87,4.0,NNE,4.6,-,N/A,,Haze,30,2013-05-10 17:55:00
1:15 PM,85.6,67.3,54,29.86,5.0,North,5.8,-,N/A,,Haze,10,2013-05-10 18:15:00
1:35 PM,87.6,67.5,51,29.85,5.0,North,6.9,-,N/A,,Haze,10,2013-05-10 18:35:00
1:55 PM,88.3,66.0,47,29.84,5.0,NW,3.5,-,N/A,,Haze,320,2013-05-10 18:55:00
2:15 PM,90.0,65.1,44,29.83,5.0,North,9.2,-,N/A,,Haze,360,2013-05-10 19:15:00
2:35 PM,91.2,64.2,41,29.82,7.0,East,3.5,-,N/A,,Clear,100,2013-05-10 19:35:00
2:55 PM,93.0,61.3,35,29.81,7.0,NE,11.5,-,N/A,,Clear,40,2013-05-10 19:55:00
3:15 PM,94.3,60.4,32,29.80,7.0,ENE,5.8,-,N/A,,Clear,60,2013-05-10 20:15:00
3:35 PM,94.6,59.5,31,29.78,7.0,NNE,6.9,-,N/A,,Clear,30,2013-05-10 20:35:00
3:55 PM,96.4,56.8,27,29.77,7.0,North,5.8,-,N/A,,Clear,350,2013-05-10 20:55:00
4:15 PM,97.3,57.9,27,29.76,7.0,ENE,8.1,16.1,N/A,,Clear,70,2013-05-10 21:15:00
4:35 PM,97.2,56.7,26,29.74,7.0,ENE,5.8,-,N/A,,Clear,60,2013-05-10 21:35:00
5:15 PM,97.9,53.8,23,29.73,7.0,ENE,13.8,18.4,N/A,,Clear,70,2013-05-10 22:15:00
5:35 PM,97.5,50.7,20,29.73,10.0,East,9.2,-,N/A,,Clear,80,2013-05-10 22:35:00
5:55 PM,96.6,58.6,28,29.73,7.0,East,17.3,23.0,N/A,,Clear,100,2013-05-10 22:55:00
6:15 PM,94.3,60.4,32,29.74,7.0,East,17.3,26.5,N/A,,Clear,90,2013-05-10 23:15:00
6:35 PM,92.7,62.2,36,29.74,7.0,East,16.1,20.7,N/A,,Clear,80,2013-05-10 23:35:00
6:55 PM,90.9,62.8,39,29.76,7.0,East,15.0,25.3,N/A,,Clear,90,2013-05-10 23:55:00
7:15 PM,90.3,62.6,39,29.77,7.0,East,16.1,21.9,N/A,,Clear,90,2013-05-11 00:15:00
7:35 PM,88.7,63.5,43,29.77,7.0,East,16.1,23.0,N/A,,Clear,90,2013-05-11 00:35:00
7:55 PM,87.1,64.4,47,29.79,7.0,East,11.5,20.7,N/A,,Clear,80,2013-05-11 00:55:00
8:15 PM,86.0,64.9,49,29.79,7.0,ENE,12.7,21.9,N/A,,Clear,70,2013-05-11 01:15:00
8:35 PM,85.1,65.5,52,29.81,7.0,East,13.8,20.7,N/A,,Clear,80,2013-05-11 01:35:00
8:55 PM,84.2,66.2,55,29.82,10.0,East,11.5,19.6,N/A,,Clear,90,2013-05-11 01:55:00
9:15 PM,82.9,66.2,57,29.83,10.0,East,15.0,19.6,N/A,,Clear,90,2013-05-11 02:15:00
9:35 PM,81.9,66.2,59,29.85,10.0,East,13.8,21.9,N/A,,Clear,80,2013-05-11 02:35:00
9:55 PM,81.1,66.6,61,29.85,10.0,East,11.5,23.0,N/A,,Clear,90,2013-05-11 02:55:00
10:15 PM,80.4,66.6,63,29.84,10.0,East,13.8,24.2,N/A,,Clear,90,2013-05-11 03:15:00
10:35 PM,79.7,66.9,65,29.86,10.0,NE,15.0,24.2,N/A,,Scattered Clouds,50,2013-05-11 03:35:00
10:55 PM,78.4,67.1,68,29.87,10.0,ENE,16.1,24.2,N/A,,Overcast,70,2013-05-11 03:55:00
11:15 PM,78.4,67.1,68,29.90,7.0,ENE,15.0,23.0,N/A,,Overcast,70,2013-05-11 04:15:00
11:35 PM,78.4,66.4,66,29.93,7.0,East,15.0,19.6,N/A,Thunderstorm,Overcast,80,2013-05-11 04:35:00
11:55 PM,78.1,66.4,67,29.90,7.0,East,13.8,21.9,N/A,,Overcast,90,2013-05-11 04:55:00